Year,Month,Day,Hour,Minute,Value (Times are PST for temperature in C)
2018,06,16,00,00,13.00
2018,06,16,00,01,13.00
2018,06,16,00,02,13.00
2018,06,16,00,03,12.90
2018,06,16,00,04,12.90
2018,06,16,00,05,12.90
2018,06,16,00,06,12.80
2018,06,16,00,07,12.80
2018,06,16,00,08,12.80
2018,06,16,00,09,12.80
2018,06,16,00,10,12.80
2018,06,16,00,11,12.70
2018,06,16,00,12,12.70
2018,06,16,00,13,12.70
2018,06,16,00,14,12.70
2018,06,16,00,15,12.70
2018,06,16,00,16,12.60
2018,06,16,00,17,12.60
2018,06,16,00,18,12.60
2018,06,16,00,19,12.60
2018,06,16,00,20,12.60
2018,06,16,00,21,12.60
2018,06,16,00,22,12.50
2018,06,16,00,23,12.50
2018,06,16,00,24,12.50
2018,06,16,00,25,12.50
2018,06,16,00,26,12.50
2018,06,16,00,27,12.50
2018,06,16,00,28,12.50
2018,06,16,00,29,12.50
2018,06,16,00,30,12.50
2018,06,16,00,31,12.50
2018,06,16,00,32,12.50
2018,06,16,00,33,12.50
2018,06,16,00,34,12.50
2018,06,16,00,35,12.50
2018,06,16,00,36,12.40
2018,06,16,00,37,12.40
2018,06,16,00,38,12.40
2018,06,16,00,39,12.40
2018,06,16,00,40,12.40
2018,06,16,00,41,12.30
2018,06,16,00,42,12.30
2018,06,16,00,43,12.30
2018,06,16,00,44,12.30
2018,06,16,00,45,12.30
2018,06,16,00,46,12.30
2018,06,16,00,47,12.20
2018,06,16,00,48,12.20
2018,06,16,00,49,12.20
2018,06,16,00,50,12.20
2018,06,16,00,51,12.20
2018,06,16,00,52,12.20
2018,06,16,00,53,12.20
2018,06,16,00,54,12.20
2018,06,16,00,55,12.20
2018,06,16,00,56,12.10
2018,06,16,00,57,12.10
2018,06,16,00,58,12.10
2018,06,16,00,59,12.10
2018,06,16,01,00,12.10
2018,06,16,01,01,12.10
2018,06,16,01,02,12.10
2018,06,16,01,03,12.10
2018,06,16,01,04,12.00
2018,06,16,01,05,12.00
2018,06,16,01,06,12.00
2018,06,16,01,07,12.00
2018,06,16,01,08,11.90
2018,06,16,01,09,11.90
2018,06,16,01,10,11.90
2018,06,16,01,11,11.90
2018,06,16,01,12,11.90
2018,06,16,01,13,11.90
2018,06,16,01,14,11.90
2018,06,16,01,15,11.90
2018,06,16,01,16,11.90
2018,06,16,01,17,11.90
2018,06,16,01,18,11.90
2018,06,16,01,19,11.80
2018,06,16,01,20,11.80
2018,06,16,01,21,11.80
2018,06,16,01,22,11.80
2018,06,16,01,23,11.80
2018,06,16,01,24,11.80
2018,06,16,01,25,11.80
2018,06,16,01,26,11.80
2018,06,16,01,27,11.80
2018,06,16,01,28,11.80
2018,06,16,01,29,11.80
2018,06,16,01,30,11.80
2018,06,16,01,31,11.80
2018,06,16,01,32,11.80
2018,06,16,01,33,11.80
2018,06,16,01,34,11.70
2018,06,16,01,35,11.70
2018,06,16,01,36,11.70
2018,06,16,01,37,11.70
2018,06,16,01,38,11.70
2018,06,16,01,39,11.70
2018,06,16,01,40,11.70
2018,06,16,01,41,11.70
2018,06,16,01,42,11.70
2018,06,16,01,43,11.80
2018,06,16,01,44,11.80
2018,06,16,01,45,11.70
2018,06,16,01,46,11.80
2018,06,16,01,47,11.70
2018,06,16,01,48,11.70
2018,06,16,01,49,11.70
2018,06,16,01,50,11.70
2018,06,16,01,51,11.70
2018,06,16,01,52,11.70
2018,06,16,01,53,11.70
2018,06,16,01,54,11.70
2018,06,16,01,55,11.70
2018,06,16,01,56,11.80
2018,06,16,01,57,11.80
2018,06,16,01,58,11.80
2018,06,16,01,59,11.80
2018,06,16,02,00,11.80
2018,06,16,02,01,11.80
2018,06,16,02,02,11.70
2018,06,16,02,03,11.70
2018,06,16,02,04,11.70
2018,06,16,02,05,11.70
2018,06,16,02,06,11.70
2018,06,16,02,07,11.70
2018,06,16,02,08,11.70
2018,06,16,02,09,11.70
2018,06,16,02,10,11.70
2018,06,16,02,11,11.70
2018,06,16,02,12,11.70
2018,06,16,02,13,11.70
2018,06,16,02,14,11.70
2018,06,16,02,15,11.70
2018,06,16,02,16,11.70
2018,06,16,02,17,11.60
2018,06,16,02,18,11.60
2018,06,16,02,19,11.60
2018,06,16,02,20,11.60
2018,06,16,02,21,11.60
2018,06,16,02,22,11.60
2018,06,16,02,23,11.60
2018,06,16,02,24,11.60
2018,06,16,02,25,11.60
2018,06,16,02,26,11.60
2018,06,16,02,27,11.60
2018,06,16,02,28,11.60
2018,06,16,02,29,11.50
2018,06,16,02,30,11.50
2018,06,16,02,31,11.60
2018,06,16,02,32,11.60
2018,06,16,02,33,11.50
2018,06,16,02,34,11.60
2018,06,16,02,35,11.60
2018,06,16,02,36,11.60
2018,06,16,02,37,11.50
2018,06,16,02,38,11.50
2018,06,16,02,39,11.50
2018,06,16,02,40,11.50
2018,06,16,02,41,11.50
2018,06,16,02,42,11.50
2018,06,16,02,43,11.50
2018,06,16,02,44,11.50
2018,06,16,02,45,11.50
2018,06,16,02,46,11.40
2018,06,16,02,47,11.40
2018,06,16,02,48,11.40
2018,06,16,02,49,11.40
2018,06,16,02,50,11.40
2018,06,16,02,51,11.40
2018,06,16,02,52,11.30
2018,06,16,02,53,11.30
2018,06,16,02,54,11.30
2018,06,16,02,55,11.30
2018,06,16,02,56,11.30
2018,06,16,02,57,11.30
2018,06,16,02,58,11.30
2018,06,16,02,59,11.30
2018,06,16,03,00,11.30
2018,06,16,03,01,11.30
2018,06,16,03,02,11.30
2018,06,16,03,03,11.30
2018,06,16,03,04,11.30
2018,06,16,03,05,11.30
2018,06,16,03,06,11.30
2018,06,16,03,07,11.30
2018,06,16,03,08,11.30
2018,06,16,03,09,11.30
2018,06,16,03,10,11.30
2018,06,16,03,11,11.30
2018,06,16,03,12,11.30
2018,06,16,03,13,11.30
2018,06,16,03,14,11.30
2018,06,16,03,15,11.30
2018,06,16,03,16,11.30
2018,06,16,03,17,11.30
2018,06,16,03,18,11.30
2018,06,16,03,19,11.30
2018,06,16,03,20,11.30
2018,06,16,03,21,11.30
2018,06,16,03,22,11.20
2018,06,16,03,23,11.20
2018,06,16,03,24,11.20
2018,06,16,03,25,11.20
2018,06,16,03,26,11.20
2018,06,16,03,27,11.20
2018,06,16,03,28,11.10
2018,06,16,03,29,11.10
2018,06,16,03,30,11.10
2018,06,16,03,31,11.10
2018,06,16,03,32,11.10
2018,06,16,03,33,11.10
2018,06,16,03,34,11.00
2018,06,16,03,35,11.00
2018,06,16,03,36,11.00
2018,06,16,03,37,11.00
2018,06,16,03,38,10.90
2018,06,16,03,39,10.90
2018,06,16,03,40,10.90
2018,06,16,03,41,10.90
2018,06,16,03,42,10.90
2018,06,16,03,43,10.90
2018,06,16,03,44,10.80
2018,06,16,03,45,10.80
2018,06,16,03,46,10.90
2018,06,16,03,47,10.80
2018,06,16,03,48,10.80
2018,06,16,03,49,10.80
2018,06,16,03,50,10.80
2018,06,16,03,51,10.80
2018,06,16,03,52,10.80
2018,06,16,03,53,10.80
2018,06,16,03,54,10.80
2018,06,16,03,55,10.80
2018,06,16,03,56,10.80
2018,06,16,03,57,10.80
2018,06,16,03,58,10.80
2018,06,16,03,59,10.70
2018,06,16,04,00,10.70
2018,06,16,04,01,10.70
2018,06,16,04,02,10.70
2018,06,16,04,03,10.70
2018,06,16,04,04,10.70
2018,06,16,04,05,10.60
2018,06,16,04,06,10.60
2018,06,16,04,07,10.60
2018,06,16,04,08,10.60
2018,06,16,04,09,10.60
2018,06,16,04,10,10.60
2018,06,16,04,11,10.60
2018,06,16,04,12,10.50
2018,06,16,04,13,10.50
2018,06,16,04,14,10.50
2018,06,16,04,15,10.50
2018,06,16,04,16,10.50
2018,06,16,04,17,10.50
2018,06,16,04,18,10.40
2018,06,16,04,19,10.40
2018,06,16,04,20,10.40
2018,06,16,04,21,10.40
2018,06,16,04,22,10.40
2018,06,16,04,23,10.40
2018,06,16,04,24,10.40
2018,06,16,04,25,10.30
2018,06,16,04,26,10.30
2018,06,16,04,27,10.30
2018,06,16,04,28,10.30
2018,06,16,04,29,10.30
2018,06,16,04,30,10.30
2018,06,16,04,31,10.30
2018,06,16,04,32,10.30
2018,06,16,04,33,10.30
2018,06,16,04,34,10.30
2018,06,16,04,35,10.30
2018,06,16,04,36,10.30
2018,06,16,04,37,10.30
2018,06,16,04,38,10.20
2018,06,16,04,39,10.20
2018,06,16,04,40,10.20
2018,06,16,04,41,10.20
2018,06,16,04,42,10.20
2018,06,16,04,43,10.20
2018,06,16,04,44,10.20
2018,06,16,04,45,10.20
2018,06,16,04,46,10.20
2018,06,16,04,47,10.20
2018,06,16,04,48,10.20
2018,06,16,04,49,10.20
2018,06,16,04,50,10.10
2018,06,16,04,51,10.10
2018,06,16,04,52,10.10
2018,06,16,04,53,10.10
2018,06,16,04,54,10.10
2018,06,16,04,55,10.10
2018,06,16,04,56,10.10
2018,06,16,04,57,10.10
2018,06,16,04,58,10.10
2018,06,16,04,59,10.10
2018,06,16,05,00,10.10
2018,06,16,05,01,10.00
2018,06,16,05,02,10.10
2018,06,16,05,03,10.10
2018,06,16,05,04,10.10
2018,06,16,05,05,10.10
2018,06,16,05,06,10.10
2018,06,16,05,07,10.10
2018,06,16,05,08,10.10
2018,06,16,05,09,10.10
2018,06,16,05,10,10.10
2018,06,16,05,11,10.10
2018,06,16,05,12,10.00
2018,06,16,05,13,10.00
2018,06,16,05,14,10.00
2018,06,16,05,15,10.00
2018,06,16,05,16,10.00
2018,06,16,05,17,10.00
2018,06,16,05,18,10.00
2018,06,16,05,19,10.00
2018,06,16,05,20,10.00
2018,06,16,05,21,10.00
2018,06,16,05,22,10.00
2018,06,16,05,23,10.00
2018,06,16,05,24,9.90
2018,06,16,05,25,9.90
2018,06,16,05,26,9.90
2018,06,16,05,27,9.90
2018,06,16,05,28,9.90
2018,06,16,05,29,9.90
2018,06,16,05,30,9.90
2018,06,16,05,31,9.90
2018,06,16,05,32,9.80
2018,06,16,05,33,9.80
2018,06,16,05,34,9.80
2018,06,16,05,35,9.80
2018,06,16,05,36,9.80
2018,06,16,05,37,9.80
2018,06,16,05,38,9.80
2018,06,16,05,39,9.80
2018,06,16,05,40,9.80
2018,06,16,05,41,9.80
2018,06,16,05,42,9.70
2018,06,16,05,43,9.70
2018,06,16,05,44,9.70
2018,06,16,05,45,9.70
2018,06,16,05,46,9.70
2018,06,16,05,47,9.70
2018,06,16,05,48,9.70
2018,06,16,05,49,9.70
2018,06,16,05,50,9.70
2018,06,16,05,51,9.80
2018,06,16,05,52,9.80
2018,06,16,05,53,9.80
2018,06,16,05,54,9.80
2018,06,16,05,55,9.80
2018,06,16,05,56,9.80
2018,06,16,05,57,9.80
2018,06,16,05,58,9.90
2018,06,16,05,59,9.90
2018,06,16,06,00,9.90
2018,06,16,06,01,9.90
2018,06,16,06,02,9.90
2018,06,16,06,03,9.90
2018,06,16,06,04,10.00
2018,06,16,06,05,10.00
2018,06,16,06,06,10.00
2018,06,16,06,07,10.10
2018,06,16,06,08,10.10
2018,06,16,06,09,10.20
2018,06,16,06,10,10.20
2018,06,16,06,11,10.20
2018,06,16,06,12,10.20
2018,06,16,06,13,10.20
2018,06,16,06,14,10.30
2018,06,16,06,15,10.30
2018,06,16,06,16,10.30
2018,06,16,06,17,10.30
2018,06,16,06,18,10.40
2018,06,16,06,19,10.40
2018,06,16,06,20,10.50
2018,06,16,06,21,10.50
2018,06,16,06,22,10.50
2018,06,16,06,23,10.60
2018,06,16,06,24,10.60
2018,06,16,06,25,10.60
2018,06,16,06,26,10.60
2018,06,16,06,27,10.60
2018,06,16,06,28,10.60
2018,06,16,06,29,10.60
2018,06,16,06,30,10.60
2018,06,16,06,31,10.60
2018,06,16,06,32,10.60
2018,06,16,06,33,10.60
2018,06,16,06,34,10.60
2018,06,16,06,35,10.70
2018,06,16,06,36,10.80
2018,06,16,06,37,10.80
2018,06,16,06,38,10.80
2018,06,16,06,39,10.90
2018,06,16,06,40,10.90
2018,06,16,06,41,10.90
2018,06,16,06,42,11.00
2018,06,16,06,43,11.00
2018,06,16,06,44,11.00
2018,06,16,06,45,11.00
2018,06,16,06,46,11.00
2018,06,16,06,47,11.00
2018,06,16,06,48,11.00
2018,06,16,06,49,11.00
2018,06,16,06,50,11.10
2018,06,16,06,51,11.20
2018,06,16,06,52,11.30
2018,06,16,06,53,11.30
2018,06,16,06,54,11.40
2018,06,16,06,55,11.40
2018,06,16,06,56,11.40
2018,06,16,06,57,11.50
2018,06,16,06,58,11.50
2018,06,16,06,59,11.50
2018,06,16,07,00,11.50
2018,06,16,07,01,11.50
2018,06,16,07,02,11.50
2018,06,16,07,03,11.50
2018,06,16,07,04,11.50
2018,06,16,07,05,11.50
2018,06,16,07,06,11.50
2018,06,16,07,07,11.40
2018,06,16,07,08,11.40
2018,06,16,07,09,11.40
2018,06,16,07,10,11.50
2018,06,16,07,11,11.50
2018,06,16,07,12,11.50
2018,06,16,07,13,11.50
2018,06,16,07,14,11.60
2018,06,16,07,15,11.60
2018,06,16,07,16,11.60
2018,06,16,07,17,11.70
2018,06,16,07,18,11.80
2018,06,16,07,19,11.80
2018,06,16,07,20,11.80
2018,06,16,07,21,11.90
2018,06,16,07,22,12.00
2018,06,16,07,23,12.10
2018,06,16,07,24,12.10
2018,06,16,07,25,12.10
2018,06,16,07,26,12.10
2018,06,16,07,27,12.10
2018,06,16,07,28,12.10
2018,06,16,07,29,12.10
2018,06,16,07,30,12.10
2018,06,16,07,31,12.10
2018,06,16,07,32,12.10
2018,06,16,07,33,12.10
2018,06,16,07,34,12.20
2018,06,16,07,35,12.20
2018,06,16,07,36,12.20
2018,06,16,07,37,12.20
2018,06,16,07,38,12.20
2018,06,16,07,39,12.20
2018,06,16,07,40,12.30
2018,06,16,07,41,12.30
2018,06,16,07,42,12.30
2018,06,16,07,43,12.30
2018,06,16,07,44,12.30
2018,06,16,07,45,12.30
2018,06,16,07,46,12.30
2018,06,16,07,47,12.30
2018,06,16,07,48,12.40
2018,06,16,07,49,12.40
2018,06,16,07,50,12.40
2018,06,16,07,51,12.40
2018,06,16,07,52,12.40
2018,06,16,07,53,12.50
2018,06,16,07,54,12.50
2018,06,16,07,55,12.60
2018,06,16,07,56,12.60
2018,06,16,07,57,12.60
2018,06,16,07,58,12.60
2018,06,16,07,59,12.60
2018,06,16,08,00,12.70
2018,06,16,08,01,12.70
2018,06,16,08,02,12.60
2018,06,16,08,03,12.60
2018,06,16,08,04,12.60
2018,06,16,08,05,12.50
2018,06,16,08,06,12.50
2018,06,16,08,07,12.50
2018,06,16,08,08,12.50
2018,06,16,08,09,12.50
2018,06,16,08,10,12.50
2018,06,16,08,11,12.50
2018,06,16,08,12,12.40
2018,06,16,08,13,12.40
2018,06,16,08,14,12.40
2018,06,16,08,15,12.40
2018,06,16,08,16,12.40
2018,06,16,08,17,12.50
2018,06,16,08,18,12.50
2018,06,16,08,19,12.60
2018,06,16,08,20,12.60
2018,06,16,08,21,12.60
2018,06,16,08,22,12.60
2018,06,16,08,23,12.70
2018,06,16,08,24,12.70
2018,06,16,08,25,12.80
2018,06,16,08,26,12.80
2018,06,16,08,27,12.90
2018,06,16,08,28,13.00
2018,06,16,08,29,13.10
2018,06,16,08,30,13.10
2018,06,16,08,31,13.10
2018,06,16,08,32,13.10
2018,06,16,08,33,13.20
2018,06,16,08,34,13.20
2018,06,16,08,35,13.30
2018,06,16,08,36,13.30
2018,06,16,08,37,13.40
2018,06,16,08,38,13.50
2018,06,16,08,39,13.60
2018,06,16,08,40,13.70
2018,06,16,08,41,13.70
2018,06,16,08,42,13.80
2018,06,16,08,43,13.90
2018,06,16,08,44,14.00
2018,06,16,08,45,14.10
2018,06,16,08,46,14.20
2018,06,16,08,47,14.20
2018,06,16,08,48,14.30
2018,06,16,08,49,14.50
2018,06,16,08,50,14.60
2018,06,16,08,51,14.60
2018,06,16,08,52,14.70
2018,06,16,08,53,14.70
2018,06,16,08,54,14.80
2018,06,16,08,55,14.80
2018,06,16,08,56,14.90
2018,06,16,08,57,15.00
2018,06,16,08,58,15.10
2018,06,16,08,59,15.20
2018,06,16,09,00,15.20
2018,06,16,09,01,15.30
2018,06,16,09,02,15.40
2018,06,16,09,03,15.40
2018,06,16,09,04,15.50
2018,06,16,09,05,15.60
2018,06,16,09,06,15.70
2018,06,16,09,07,15.80
2018,06,16,09,08,15.90
2018,06,16,09,09,16.00
2018,06,16,09,10,16.10
2018,06,16,09,11,16.20
2018,06,16,09,12,16.30
2018,06,16,09,13,16.40
2018,06,16,09,14,16.50
2018,06,16,09,15,16.60
2018,06,16,09,16,16.60
2018,06,16,09,17,16.70
2018,06,16,09,18,16.70
2018,06,16,09,19,16.70
2018,06,16,09,20,16.70
2018,06,16,09,21,16.80
2018,06,16,09,22,16.90
2018,06,16,09,23,17.00
2018,06,16,09,24,17.00
2018,06,16,09,25,17.10
2018,06,16,09,26,17.10
2018,06,16,09,27,17.20
2018,06,16,09,28,17.20
2018,06,16,09,29,17.30
2018,06,16,09,30,17.30
2018,06,16,09,31,17.30
2018,06,16,09,32,17.20
2018,06,16,09,33,17.00
2018,06,16,09,34,17.00
2018,06,16,09,35,17.00
2018,06,16,09,36,17.10
2018,06,16,09,37,17.20
2018,06,16,09,38,17.30
2018,06,16,09,39,17.40
2018,06,16,09,40,17.50
2018,06,16,09,41,17.60
2018,06,16,09,42,17.70
2018,06,16,09,43,17.70
2018,06,16,09,44,17.70
2018,06,16,09,45,17.80
2018,06,16,09,46,17.90
2018,06,16,09,47,18.00
2018,06,16,09,48,18.10
2018,06,16,09,49,18.20
2018,06,16,09,50,18.30
2018,06,16,09,51,18.40
2018,06,16,09,52,18.50
2018,06,16,09,53,18.50
2018,06,16,09,54,18.60
2018,06,16,09,55,18.60
2018,06,16,09,56,18.60
2018,06,16,09,57,18.60
2018,06,16,09,58,18.70
2018,06,16,09,59,18.70
2018,06,16,10,00,18.80
2018,06,16,10,01,18.80
2018,06,16,10,02,18.60
2018,06,16,10,03,18.60
2018,06,16,10,04,18.60
2018,06,16,10,05,18.70
2018,06,16,10,06,18.70
2018,06,16,10,07,18.70
2018,06,16,10,08,18.80
2018,06,16,10,09,18.80
2018,06,16,10,10,18.70
2018,06,16,10,11,18.70
2018,06,16,10,12,18.70
2018,06,16,10,13,18.80
2018,06,16,10,14,18.90
2018,06,16,10,15,18.80
2018,06,16,10,16,18.80
2018,06,16,10,17,18.70
2018,06,16,10,18,18.60
2018,06,16,10,19,18.70
2018,06,16,10,20,18.60
2018,06,16,10,21,18.70
2018,06,16,10,22,18.70
2018,06,16,10,23,18.70
2018,06,16,10,24,18.80
2018,06,16,10,25,18.90
2018,06,16,10,26,19.00
2018,06,16,10,27,19.00
2018,06,16,10,28,19.10
2018,06,16,10,29,19.10
2018,06,16,10,30,19.10
2018,06,16,10,31,19.00
2018,06,16,10,32,19.00
2018,06,16,10,33,19.00
2018,06,16,10,34,19.10
2018,06,16,10,35,19.10
2018,06,16,10,36,19.00
2018,06,16,10,37,19.00
2018,06,16,10,38,19.10
2018,06,16,10,39,19.20
2018,06,16,10,40,19.30
2018,06,16,10,41,19.30
2018,06,16,10,42,19.30
2018,06,16,10,43,19.40
2018,06,16,10,44,19.40
2018,06,16,10,45,19.40
2018,06,16,10,46,19.40
2018,06,16,10,47,19.30
2018,06,16,10,48,19.30
2018,06,16,10,49,19.30
2018,06,16,10,50,19.40
2018,06,16,10,51,19.40
2018,06,16,10,52,19.50
2018,06,16,10,53,19.60
2018,06,16,10,54,19.60
2018,06,16,10,55,19.70
2018,06,16,10,56,19.70
2018,06,16,10,57,19.70
2018,06,16,10,58,19.60
2018,06,16,10,59,19.60
2018,06,16,11,00,19.70
2018,06,16,11,01,19.70
2018,06,16,11,02,19.70
2018,06,16,11,03,19.70
2018,06,16,11,04,19.70
2018,06,16,11,05,19.50
2018,06,16,11,06,19.40
2018,06,16,11,07,19.30
2018,06,16,11,08,19.20
2018,06,16,11,09,19.10
2018,06,16,11,10,19.10
2018,06,16,11,11,19.20
2018,06,16,11,12,19.30
2018,06,16,11,13,19.40
2018,06,16,11,14,19.60
2018,06,16,11,15,19.70
2018,06,16,11,16,19.80
2018,06,16,11,17,19.70
2018,06,16,11,18,19.60
2018,06,16,11,19,19.70
2018,06,16,11,20,19.80
2018,06,16,11,21,19.80
2018,06,16,11,22,19.80
2018,06,16,11,23,19.70
2018,06,16,11,24,19.60
2018,06,16,11,25,19.60
2018,06,16,11,26,19.60
2018,06,16,11,27,19.60
2018,06,16,11,28,19.60
2018,06,16,11,29,19.50
2018,06,16,11,30,19.50
2018,06,16,11,31,19.40
2018,06,16,11,32,19.30
2018,06,16,11,33,19.30
2018,06,16,11,34,19.30
2018,06,16,11,35,19.30
2018,06,16,11,36,19.40
2018,06,16,11,37,19.40
2018,06,16,11,38,19.40
2018,06,16,11,39,19.40
2018,06,16,11,40,19.30
2018,06,16,11,41,19.20
2018,06,16,11,42,19.10
2018,06,16,11,43,19.10
2018,06,16,11,44,19.00
2018,06,16,11,45,18.90
2018,06,16,11,46,19.00
2018,06,16,11,47,19.10
2018,06,16,11,48,19.20
2018,06,16,11,49,19.20
2018,06,16,11,50,19.20
2018,06,16,11,51,19.10
2018,06,16,11,52,19.00
2018,06,16,11,53,18.90
2018,06,16,11,54,18.90
2018,06,16,11,55,18.50
2018,06,16,11,56,18.10
2018,06,16,11,57,17.80
2018,06,16,11,58,17.70
2018,06,16,11,59,17.60
2018,06,16,12,00,17.50
2018,06,16,12,01,17.40
2018,06,16,12,02,17.30
2018,06,16,12,03,17.20
2018,06,16,12,04,17.00
2018,06,16,12,05,16.90
2018,06,16,12,06,16.80
2018,06,16,12,07,16.80
2018,06,16,12,08,16.80
2018,06,16,12,09,16.80
2018,06,16,12,10,16.90
2018,06,16,12,11,17.10
2018,06,16,12,12,17.20
2018,06,16,12,13,17.40
2018,06,16,12,14,17.60
2018,06,16,12,15,17.80
2018,06,16,12,16,18.00
2018,06,16,12,17,18.10
2018,06,16,12,18,18.30
2018,06,16,12,19,18.40
2018,06,16,12,20,18.50
2018,06,16,12,21,18.60
2018,06,16,12,22,18.70
2018,06,16,12,23,18.90
2018,06,16,12,24,19.00
2018,06,16,12,25,19.10
2018,06,16,12,26,19.00
2018,06,16,12,27,18.90
2018,06,16,12,28,18.70
2018,06,16,12,29,18.60
2018,06,16,12,30,18.30
2018,06,16,12,31,18.20
2018,06,16,12,32,18.00
2018,06,16,12,33,17.80
2018,06,16,12,34,17.70
2018,06,16,12,35,17.60
2018,06,16,12,36,17.60
2018,06,16,12,37,17.70
2018,06,16,12,38,17.90
2018,06,16,12,39,18.20
2018,06,16,12,40,18.50
2018,06,16,12,41,18.60
2018,06,16,12,42,18.60
2018,06,16,12,43,18.60
2018,06,16,12,44,18.50
2018,06,16,12,45,18.40
2018,06,16,12,46,18.20
2018,06,16,12,47,18.10
2018,06,16,12,48,18.00
2018,06,16,12,49,18.00
2018,06,16,12,50,18.00
2018,06,16,12,51,17.90
2018,06,16,12,52,17.90
2018,06,16,12,53,17.90
2018,06,16,12,54,18.00
2018,06,16,12,55,18.10
2018,06,16,12,56,18.10
2018,06,16,12,57,18.20
2018,06,16,12,58,18.30
2018,06,16,12,59,18.30
2018,06,16,13,00,18.30
2018,06,16,13,01,18.50
2018,06,16,13,02,18.70
2018,06,16,13,03,18.90
2018,06,16,13,04,19.10
2018,06,16,13,05,19.40
2018,06,16,13,06,19.60
2018,06,16,13,07,19.80
2018,06,16,13,08,19.80
2018,06,16,13,09,19.60
2018,06,16,13,10,19.40
2018,06,16,13,11,19.30
2018,06,16,13,12,19.20
2018,06,16,13,13,19.10
2018,06,16,13,14,19.00
2018,06,16,13,15,19.10
2018,06,16,13,16,19.20
2018,06,16,13,17,19.40
2018,06,16,13,18,19.60
2018,06,16,13,19,19.80
2018,06,16,13,20,19.80
2018,06,16,13,21,19.90
2018,06,16,13,22,20.00
2018,06,16,13,23,20.00
2018,06,16,13,24,20.00
2018,06,16,13,25,20.00
2018,06,16,13,26,19.90
2018,06,16,13,27,20.00
2018,06,16,13,28,20.00
2018,06,16,13,29,20.10
2018,06,16,13,30,20.10
2018,06,16,13,31,20.20
2018,06,16,13,32,20.30
2018,06,16,13,33,20.30
2018,06,16,13,34,20.40
2018,06,16,13,35,20.50
2018,06,16,13,36,20.70
2018,06,16,13,37,20.80
2018,06,16,13,38,20.90
2018,06,16,13,39,21.00
2018,06,16,13,40,20.90
2018,06,16,13,41,20.80
2018,06,16,13,42,20.80
2018,06,16,13,43,20.70
2018,06,16,13,44,20.60
2018,06,16,13,45,20.50
2018,06,16,13,46,20.40
2018,06,16,13,47,20.40
2018,06,16,13,48,20.50
2018,06,16,13,49,20.70
2018,06,16,13,50,20.80
2018,06,16,13,51,20.90
2018,06,16,13,52,21.10
2018,06,16,13,53,21.20
2018,06,16,13,54,21.30
2018,06,16,13,55,21.30
2018,06,16,13,56,21.30
2018,06,16,13,57,21.30
2018,06,16,13,58,21.20
2018,06,16,13,59,21.20
2018,06,16,14,00,21.20
2018,06,16,14,01,21.10
2018,06,16,14,02,21.20
2018,06,16,14,03,21.20
2018,06,16,14,04,21.10
2018,06,16,14,05,21.10
2018,06,16,14,06,21.10
2018,06,16,14,07,21.10
2018,06,16,14,08,21.10
2018,06,16,14,09,21.20
2018,06,16,14,10,21.10
2018,06,16,14,11,21.20
2018,06,16,14,12,21.20
2018,06,16,14,13,21.30
2018,06,16,14,14,21.50
2018,06,16,14,15,21.50
2018,06,16,14,16,21.60
2018,06,16,14,17,21.60
2018,06,16,14,18,21.80
2018,06,16,14,19,21.80
2018,06,16,14,20,21.70
2018,06,16,14,21,21.60
2018,06,16,14,22,21.50
2018,06,16,14,23,21.40
2018,06,16,14,24,21.30
2018,06,16,14,25,21.30
2018,06,16,14,26,21.30
2018,06,16,14,27,21.40
2018,06,16,14,28,21.60
2018,06,16,14,29,21.70
2018,06,16,14,30,21.90
2018,06,16,14,31,22.00
2018,06,16,14,32,22.00
2018,06,16,14,33,22.00
2018,06,16,14,34,22.00
2018,06,16,14,35,22.10
2018,06,16,14,36,22.20
2018,06,16,14,37,22.20
2018,06,16,14,38,22.30
2018,06,16,14,39,22.20
2018,06,16,14,40,22.20
2018,06,16,14,41,22.20
2018,06,16,14,42,22.30
2018,06,16,14,43,22.40
2018,06,16,14,44,22.40
2018,06,16,14,45,22.40
2018,06,16,14,46,22.30
2018,06,16,14,47,22.20
2018,06,16,14,48,22.20
2018,06,16,14,49,22.30
2018,06,16,14,50,22.40
2018,06,16,14,51,22.50
2018,06,16,14,52,22.60
2018,06,16,14,53,22.70
2018,06,16,14,54,22.80
2018,06,16,14,55,22.80
2018,06,16,14,56,22.90
2018,06,16,14,57,22.90
2018,06,16,14,58,22.90
2018,06,16,14,59,22.90
2018,06,16,15,00,23.00
2018,06,16,15,01,23.10
2018,06,16,15,02,23.20
2018,06,16,15,03,23.20
2018,06,16,15,04,23.30
2018,06,16,15,05,23.30
2018,06,16,15,06,23.30
2018,06,16,15,07,23.30
2018,06,16,15,08,23.30
2018,06,16,15,09,23.20
2018,06,16,15,10,23.20
2018,06,16,15,11,23.20
2018,06,16,15,12,23.30
2018,06,16,15,13,23.40
2018,06,16,15,14,23.40
2018,06,16,15,15,23.60
2018,06,16,15,16,23.70
2018,06,16,15,17,23.90
2018,06,16,15,18,23.80
2018,06,16,15,19,23.70
2018,06,16,15,20,23.40
2018,06,16,15,21,23.30
2018,06,16,15,22,23.20
2018,06,16,15,23,23.00
2018,06,16,15,24,22.90
2018,06,16,15,25,22.90
2018,06,16,15,26,22.80
2018,06,16,15,27,22.80
2018,06,16,15,28,22.80
2018,06,16,15,29,22.90
2018,06,16,15,30,23.00
2018,06,16,15,31,23.20
2018,06,16,15,32,23.30
2018,06,16,15,33,23.50
2018,06,16,15,34,23.60
2018,06,16,15,35,23.70
2018,06,16,15,36,23.80
2018,06,16,15,37,23.90
2018,06,16,15,38,24.00
2018,06,16,15,39,24.00
2018,06,16,15,40,24.00
2018,06,16,15,41,23.80
2018,06,16,15,42,23.60
2018,06,16,15,43,23.50
2018,06,16,15,44,23.40
2018,06,16,15,45,23.40
2018,06,16,15,46,23.30
2018,06,16,15,47,23.40
2018,06,16,15,48,23.50
2018,06,16,15,49,23.60
2018,06,16,15,50,23.80
2018,06,16,15,51,23.80
2018,06,16,15,52,23.80
2018,06,16,15,53,23.70
2018,06,16,15,54,23.80
2018,06,16,15,55,23.80
2018,06,16,15,56,23.90
2018,06,16,15,57,24.00
2018,06,16,15,58,23.90
2018,06,16,15,59,23.80
2018,06,16,16,00,23.70
2018,06,16,16,01,23.70
2018,06,16,16,02,23.70
2018,06,16,16,03,23.60
2018,06,16,16,04,23.60
2018,06,16,16,05,23.60
2018,06,16,16,06,23.60
2018,06,16,16,07,23.60
2018,06,16,16,08,23.60
2018,06,16,16,09,23.60
2018,06,16,16,10,23.60
2018,06,16,16,11,23.50
2018,06,16,16,12,23.40
2018,06,16,16,13,23.40
2018,06,16,16,14,23.40
2018,06,16,16,15,23.40
2018,06,16,16,16,23.30
2018,06,16,16,17,23.30
2018,06,16,16,18,23.20
2018,06,16,16,19,23.20
2018,06,16,16,20,23.10
2018,06,16,16,21,23.00
2018,06,16,16,22,22.90
2018,06,16,16,23,22.80
2018,06,16,16,24,22.70
2018,06,16,16,25,22.70
2018,06,16,16,26,22.70
2018,06,16,16,27,22.80
2018,06,16,16,28,22.90
2018,06,16,16,29,22.90
2018,06,16,16,30,22.90
2018,06,16,16,31,22.90
2018,06,16,16,32,22.90
2018,06,16,16,33,22.90
2018,06,16,16,34,22.90
2018,06,16,16,35,22.90
2018,06,16,16,36,22.90
2018,06,16,16,37,23.00
2018,06,16,16,38,23.00
2018,06,16,16,39,23.00
2018,06,16,16,40,22.90
2018,06,16,16,41,22.90
2018,06,16,16,42,22.80
2018,06,16,16,43,22.80
2018,06,16,16,44,22.90
2018,06,16,16,45,23.00
2018,06,16,16,46,23.10
2018,06,16,16,47,23.20
2018,06,16,16,48,23.20
2018,06,16,16,49,23.20
2018,06,16,16,50,23.30
2018,06,16,16,51,23.30
2018,06,16,16,52,23.30
2018,06,16,16,53,23.30
2018,06,16,16,54,23.20
2018,06,16,16,55,23.10
2018,06,16,16,56,23.00
2018,06,16,16,57,22.90
2018,06,16,16,58,23.00
2018,06,16,16,59,23.10
2018,06,16,17,00,23.20
2018,06,16,17,01,23.30
2018,06,16,17,02,23.40
2018,06,16,17,03,23.50
2018,06,16,17,04,23.50
2018,06,16,17,05,23.60
2018,06,16,17,06,23.70
2018,06,16,17,07,23.70
2018,06,16,17,08,23.70
2018,06,16,17,09,23.70
2018,06,16,17,10,23.70
2018,06,16,17,11,23.70
2018,06,16,17,12,23.80
2018,06,16,17,13,23.80
2018,06,16,17,14,23.80
2018,06,16,17,15,23.80
2018,06,16,17,16,23.80
2018,06,16,17,17,23.80
2018,06,16,17,18,23.80
2018,06,16,17,19,23.70
2018,06,16,17,20,23.70
2018,06,16,17,21,23.70